Georgetown, SC

2:51 AM EDT on May 29, 2017 (GMT -0400)
Georgetown County

Weather History for KGGE - March, 2013

Change the Weather History Date:

Tuesday, March 5, 2013

  Actual Average Record
Temperature  
Mean Temperature 48 °F -  
Max Temperature 64 °F 68 °F 78 °F (2015)
Min Temperature 33 °F 45 °F 32 °F (2016)
Degree Days  
Heating Degree Days 16    
Moisture  
Dew Point 43 °F    
Average Humidity 73    
Maximum Humidity 100    
Minimum Humidity 37    
Precipitation  
Precipitation 0.00 in - - ()
Sea Level Pressure  
Sea Level Pressure 29.98 in    
Wind  
Wind Speed 7 mph (SSW)    
Max Wind Speed 22 mph    
Max Gust Speed 31 mph    
Visibility 10 miles    
Events Rain    
Averages and records for this station are not official NWS values.
T = Trace of Precipitation, MM = Missing Value Source: NWS Daily Summary

Daily Weather History Graph

Daily Weather History Graph

Search for Another Location

Airport or City:

Trip Planner

Search our weather history database for the weather conditions in past years. The results will help you decide how hot, cold, wet, or windy it might be!

Date:

Astronomy

Mar. 05, 2013 Rise Set
Actual Time 6:40 AM EST 6:17 PM EST
Civil Twilight 6:15 AM EST 6:42 PM EST
Nautical Twilight 5:46 AM EST 7:11 PM EST
Astronomical Twilight 5:18 AM EST 7:39 PM EST
Moon 1:37 AM EST (3/5) 12:08 PM EST (3/5)
Length of Visible Light 12h 26m
Length of Day
11h 37m
Last Quarter, 41% of the Moon is Illuminated
Mar 5
Last Quarter
Mar 11
New
Mar 19
First Quarter
Mar 27
Full
Apr 3
Last Quarter

Hourly Weather History & Observations

Time (EST) Temp. Windchill Dew Point Humidity Pressure Visibility Wind Dir Wind Speed Gust Speed Precip Events Conditions
12:35 AM 35.6 °F - 33.8 °F 93% 30.13 in 10.0 mi Calm Calm - N/A   Clear
12:55 AM 35.6 °F - 33.8 °F 93% 30.12 in 10.0 mi Calm Calm - N/A   Clear
1:15 AM 35.6 °F 32.8 °F 33.8 °F 93% 30.13 in 10.0 mi WSW 3.5 mph - N/A   Clear
1:35 AM 37.4 °F - 35.6 °F 93% 30.12 in 10.0 mi Calm Calm - N/A   Clear
1:55 AM 37.4 °F - 35.6 °F 93% 30.13 in 10.0 mi Calm Calm - N/A   Clear
2:15 AM 35.6 °F - 35.6 °F 100% 30.12 in 10.0 mi Calm Calm - N/A   Clear
2:55 AM 35.6 °F 31.7 °F 35.6 °F 100% 30.13 in 10.0 mi SW 4.6 mph - N/A   Clear
3:15 AM 37.4 °F 34.9 °F 35.6 °F 93% 30.12 in 10.0 mi SW 3.5 mph - N/A   Clear
3:35 AM 35.6 °F 32.8 °F 35.6 °F 100% 30.13 in 10.0 mi SW 3.5 mph - N/A   Clear
3:55 AM 35.6 °F - 35.6 °F 100% 30.13 in 10.0 mi Calm Calm - N/A   Clear
4:15 AM 35.6 °F - 35.6 °F 100% 30.13 in 10.0 mi Calm Calm - N/A   Clear
4:35 AM 35.6 °F - 35.6 °F 100% 30.13 in 10.0 mi Calm Calm - N/A   Clear
4:55 AM 33.8 °F - 33.8 °F 100% 30.13 in 10.0 mi Calm Calm - N/A   Clear
5:15 AM 35.6 °F 32.8 °F 35.6 °F 100% 30.14 in 10.0 mi SW 3.5 mph - N/A   Clear
5:35 AM 37.4 °F 33.8 °F 37.4 °F 100% 30.14 in 10.0 mi SW 4.6 mph - N/A   Clear
5:55 AM 39.2 °F 37.0 °F 39.2 °F 100% 30.14 in 10.0 mi SW 3.5 mph - N/A   Clear
6:15 AM 39.2 °F 37.0 °F 39.2 °F 100% 30.14 in 10.0 mi SSW 3.5 mph - N/A   Clear
6:35 AM 37.4 °F 33.8 °F 37.4 °F 100% 30.14 in 10.0 mi SSW 4.6 mph - N/A   Clear
6:55 AM 41.0 °F 38.0 °F 41.0 °F 100% 30.13 in 10.0 mi SW 4.6 mph - N/A   Clear
7:15 AM 42.8 °F 40.1 °F 42.8 °F 100% 30.13 in 10.0 mi SW 4.6 mph - N/A   Clear
8:15 AM 50.0 °F - 44.6 °F 82% 30.14 in 10.0 mi SSW 5.8 mph - N/A   Clear
8:35 AM 50.0 °F - 44.6 °F 82% 30.14 in 10.0 mi SSW 6.9 mph - N/A   Clear
8:55 AM 51.8 °F - 44.6 °F 76% 30.13 in 10.0 mi SSW 8.1 mph - N/A   Clear
9:15 AM 55.4 °F - 42.8 °F 63% 30.12 in 10.0 mi SSW 9.2 mph - N/A   Clear
9:35 AM 59.0 °F - 41.0 °F 51% 30.10 in 10.0 mi South 8.1 mph - N/A   Clear
9:55 AM 59.0 °F - 41.0 °F 51% 30.09 in 10.0 mi SSW 9.2 mph - N/A   Clear
10:15 AM 60.8 °F - 41.0 °F 48% 30.07 in 10.0 mi South 11.5 mph - N/A   Clear
10:35 AM 62.6 °F - 37.4 °F 39% 30.06 in 10.0 mi SSW 16.1 mph 23.0 mph N/A   Clear
10:55 AM 62.6 °F - 37.4 °F 39% 30.07 in 10.0 mi SW 15.0 mph 21.9 mph N/A   Clear
11:15 AM 64.4 °F - 37.4 °F 37% 30.08 in 10.0 mi SSW 18.4 mph 25.3 mph N/A   Scattered Clouds
11:35 AM 64.4 °F - 37.4 °F 37% 30.07 in 10.0 mi SSW 15.0 mph 21.9 mph N/A   Mostly Cloudy
11:55 AM 62.6 °F - 37.4 °F 39% 30.05 in 10.0 mi SSW 13.8 mph 18.4 mph N/A   Overcast
12:15 PM 64.4 °F - 37.4 °F 37% 30.04 in 10.0 mi South 12.7 mph 18.4 mph N/A   Mostly Cloudy
12:35 PM 62.6 °F - 37.4 °F 39% 30.03 in 10.0 mi South 12.7 mph 20.7 mph N/A   Mostly Cloudy
12:55 PM 62.6 °F - 41.0 °F 45% 30.01 in 10.0 mi South 11.5 mph - N/A   Mostly Cloudy
1:15 PM 62.6 °F - 41.0 °F 45% 30.01 in 10.0 mi South 11.5 mph 19.6 mph N/A   Overcast
1:35 PM 60.8 °F - 41.0 °F 48% 29.99 in 10.0 mi SSW 9.2 mph - N/A   Overcast
1:55 PM 60.8 °F - 41.0 °F 48% 29.98 in 10.0 mi South 9.2 mph 17.3 mph N/A   Overcast
2:15 PM 60.8 °F - 42.8 °F 52% 29.97 in 10.0 mi SSW 10.4 mph - N/A   Overcast
2:35 PM 60.8 °F - 42.8 °F 52% 29.96 in 10.0 mi South 13.8 mph - N/A   Mostly Cloudy
2:55 PM 60.8 °F - 42.8 °F 52% 29.96 in 10.0 mi SSW 10.4 mph - N/A   Overcast
3:15 PM 60.8 °F - 42.8 °F 52% 29.95 in 10.0 mi South 12.7 mph 17.3 mph N/A   Overcast
3:35 PM 60.8 °F - 42.8 °F 52% 29.93 in 10.0 mi SSW 11.5 mph - N/A   Overcast
3:55 PM 60.8 °F - 44.6 °F 55% 29.93 in 10.0 mi SSW 12.7 mph 19.6 mph N/A   Mostly Cloudy
4:15 PM 59.0 °F - 44.6 °F 59% 29.93 in 10.0 mi SSW 11.5 mph - N/A   Overcast
4:35 PM 59.0 °F - 44.6 °F 59% 29.92 in 10.0 mi SSW 11.5 mph 21.9 mph N/A   Overcast
4:55 PM 59.0 °F - 44.6 °F 59% 29.91 in 10.0 mi SSW 13.8 mph 25.3 mph N/A   Overcast
5:15 PM 59.0 °F - 46.4 °F 63% 29.90 in 10.0 mi South 13.8 mph - N/A   Overcast
5:35 PM 57.2 °F - 46.4 °F 67% 29.89 in 10.0 mi South 12.7 mph - N/A   Overcast
5:55 PM 57.2 °F - 46.4 °F 67% 29.88 in 10.0 mi SSW 13.8 mph 23.0 mph N/A   Overcast
6:15 PM 57.2 °F - 46.4 °F 67% 29.88 in 10.0 mi SSW 10.4 mph - N/A   Overcast
6:35 PM 55.4 °F - 46.4 °F 72% 29.87 in 10.0 mi SSW 11.5 mph 16.1 mph N/A   Scattered Clouds
6:55 PM 55.4 °F - 46.4 °F 72% 29.87 in 10.0 mi SSW 10.4 mph - N/A   Scattered Clouds
7:15 PM 57.2 °F - 50.0 °F 77% 29.85 in 10.0 mi SSW 15.0 mph 21.9 mph N/A   Overcast
7:35 PM 57.2 °F - 50.0 °F 77% 29.83 in 10.0 mi South 15.0 mph 19.6 mph N/A   Overcast
7:55 PM 59.0 °F - 51.8 °F 77% 29.81 in 10.0 mi SSW 11.5 mph 19.6 mph N/A   Overcast
8:15 PM 59.0 °F - 51.8 °F 77% 29.79 in 10.0 mi South 15.0 mph 21.9 mph N/A   Mostly Cloudy
8:35 PM 59.0 °F - 51.8 °F 77% 29.77 in 10.0 mi South 12.7 mph 18.4 mph N/A   Clear
8:55 PM 59.0 °F - 51.8 °F 77% 29.77 in 10.0 mi South 17.3 mph 24.2 mph N/A   Scattered Clouds
9:15 PM 60.8 °F - 51.8 °F 72% 29.76 in 10.0 mi South 18.4 mph 27.6 mph N/A   Clear
9:35 PM 62.6 °F - 51.8 °F 68% 29.76 in 10.0 mi SSW 21.9 mph 28.8 mph N/A   Scattered Clouds
9:55 PM 62.6 °F - 51.8 °F 68% 29.74 in 10.0 mi SSW 21.9 mph 29.9 mph N/A   Scattered Clouds
10:15 PM 62.6 °F - 53.6 °F 72% 29.74 in 10.0 mi SSW 17.3 mph 31.1 mph N/A   Mostly Cloudy
10:35 PM 60.8 °F - 53.6 °F 77% 29.73 in 10.0 mi SSW 19.6 mph 31.1 mph N/A Rain Light Rain
10:55 PM 59.0 °F - 55.4 °F 88% 29.72 in 7.0 mi SSW 21.9 mph 27.6 mph N/A Rain Light Rain
11:15 PM 59.0 °F - 55.4 °F 88% 29.70 in 10.0 mi SSW 12.7 mph 25.3 mph N/A   Overcast
11:35 PM 59.0 °F - 57.2 °F 94% 29.70 in 10.0 mi SW 12.7 mph 17.3 mph N/A   Mostly Cloudy
11:55 PM 59.0 °F - 59.0 °F 100% 29.70 in 10.0 mi SW 9.2 mph - N/A   Overcast